Simultaneous Nadir Overpasses (SNOs) Predictions

Prediction of SNOs between METOP-B and TERRA Satellite Orbit:

Table of predicted SNOs for the next 14.0 days since TLE Epoch: 11/3/2012
Index Date (METOP-B) Time (METOP-B) METOP-B Lat,Lon Date (TERRA) Time (TERRA) TERRA Lat,Lon Distance(km) Time Diff (sec)
1 11/04/2012 00:10:27 -81.26, 43.90 11/04/2012 00:10:58 -81.27, 44.05 2.67 31
2 11/04/2012 01:01:07 81.27,-148.38 11/04/2012 01:00:25 81.26,-148.56 3.39 42
3 11/06/2012 19:44:53 -81.26, 110.24 11/06/2012 19:45:13 -81.26, 110.25 0.52 20
4 11/06/2012 20:35:33 81.27, -82.11 11/06/2012 20:34:39 81.26, -82.01 1.67 54
5 11/09/2012 15:19:19 -81.26, 176.53 11/09/2012 15:19:27 -81.26, 176.70 2.90 8
6 11/09/2012 16:09:58 81.27, -15.49 11/09/2012 16:08:53 81.26, -15.59 1.78 65
7 11/12/2012 10:03:03
